AAY1132 KFLL-KTYS

Flight info

Callsign AAY1132
Flight time N/A
Altitude 34000
Route FRSBE2 STYMY Q77 MJAMS/N0461F350 Q77 SHRKS/N0464F340 Q77 TEUFL ODF
Aircraft B38M/M-SDE1FGHILORVWXY/HB1

Departure

Time N/A
Airport Fort Lauderdale Hollywood International Airport (KFLL)

Arrival

Time 2026-04-29 01:43
Airport McGhee Tyson Airport (KTYS)
Time Latitude Longitude Altitude Speed Heading
2026-04-29 00:36 29.74012 -81.68388 34080 ft 441 kts 354°
2026-04-29 00:37 29.80151 -81.68955 34081 ft 442 kts 354°
2026-04-29 00:37 29.86301 -81.69526 34083 ft 442 kts 354°
2026-04-29 00:38 29.92445 -81.70095 34088 ft 442 kts 354°
2026-04-29 00:38 29.98612 -81.70671 34086 ft 443 kts 354°
2026-04-29 00:39 30.04817 -81.71249 34086 ft 441 kts 354°
2026-04-29 00:39 30.10931 -81.71819 34087 ft 444 kts 354°
2026-04-29 00:40 30.17104 -81.72396 34086 ft 445 kts 353°
2026-04-29 00:40 30.23306 -81.72974 34086 ft 442 kts 353°
2026-04-29 00:41 30.29435 -81.73547 34086 ft 444 kts 353°
2026-04-29 00:41 30.35595 -81.74122 34086 ft 441 kts 353°
2026-04-29 00:42 30.41763 -81.74701 34084 ft 442 kts 353°
2026-04-29 00:42 30.47925 -81.75281 34082 ft 443 kts 353°
2026-04-29 00:43 30.54079 -81.75860 34080 ft 443 kts 353°
2026-04-29 00:43 30.60261 -81.76444 34078 ft 442 kts 353°
2026-04-29 00:44 30.66412 -81.77272 34080 ft 442 kts 349°
2026-04-29 00:44 30.72480 -81.78497 34077 ft 440 kts 348°
2026-04-29 00:45 30.78633 -81.79810 34075 ft 440 kts 347°
2026-04-29 00:45 30.84685 -81.81075 34076 ft 440 kts 348°
2026-04-29 00:46 30.90733 -81.82313 34076 ft 439 kts 348°
2026-04-29 00:46 30.96769 -81.83536 34073 ft 440 kts 348°
2026-04-29 00:47 31.02832 -81.84757 34073 ft 439 kts 348°
2026-04-29 00:47 31.08846 -81.85966 34074 ft 437 kts 348°
2026-04-29 00:48 31.14893 -81.87182 34074 ft 438 kts 347°
2026-04-29 00:48 31.20872 -81.88390 34078 ft 439 kts 347°
2026-04-29 00:49 31.26886 -81.89607 34073 ft 437 kts 347°
2026-04-29 00:49 31.32874 -81.90820 34079 ft 437 kts 347°
2026-04-29 00:50 31.38904 -81.92042 34081 ft 434 kts 347°
2026-04-29 00:50 31.44852 -81.93250 34088 ft 434 kts 347°
2026-04-29 00:51 31.50804 -81.94460 34091 ft 434 kts 347°
2026-04-29 00:51 31.56759 -81.95673 34093 ft 433 kts 347°
2026-04-29 00:52 31.62732 -81.96888 34093 ft 434 kts 347°
2026-04-29 00:52 31.68672 -81.98100 34086 ft 431 kts 347°
2026-04-29 00:53 31.74580 -81.99307 34090 ft 430 kts 346°
2026-04-29 00:53 31.80496 -82.00520 34087 ft 430 kts 346°
2026-04-29 00:54 31.86362 -82.01894 34086 ft 429 kts 342°
2026-04-29 00:54 31.92043 -82.04031 34093 ft 425 kts 336°
2026-04-29 00:55 31.97601 -82.06461 34093 ft 425 kts 336°
2026-04-29 00:55 32.03073 -82.08902 34092 ft 425 kts 336°
2026-04-29 00:56 32.08578 -82.11348 34093 ft 423 kts 336°
2026-04-29 00:56 32.13991 -82.13741 34091 ft 423 kts 336°
2026-04-29 00:57 32.19558 -82.16196 34093 ft 423 kts 336°
2026-04-29 00:57 32.25073 -82.18630 34094 ft 422 kts 336°
2026-04-29 00:58 32.30600 -82.21072 34097 ft 423 kts 335°
2026-04-29 00:58 32.36005 -82.23459 34099 ft 421 kts 336°
2026-04-29 00:59 32.41512 -82.25893 34096 ft 419 kts 336°
2026-04-29 00:59 32.47030 -82.28339 34099 ft 420 kts 335°
2026-04-29 01:00 32.52490 -82.30763 34102 ft 420 kts 335°
2026-04-29 01:00 32.57973 -82.33200 34101 ft 418 kts 335°
2026-04-29 01:01 32.63454 -82.35638 34103 ft 419 kts 335°
2026-04-29 01:01 32.68908 -82.38065 34104 ft 416 kts 335°
2026-04-29 01:02 32.74360 -82.40493 34106 ft 418 kts 335°
2026-04-29 01:02 32.79847 -82.42944 34103 ft 417 kts 335°
2026-04-29 01:03 32.85263 -82.45365 34101 ft 416 kts 334°
2026-04-29 01:03 32.90743 -82.47820 34101 ft 417 kts 335°
2026-04-29 01:04 32.96202 -82.50267 34101 ft 416 kts 334°
2026-04-29 01:04 33.01645 -82.52710 34105 ft 414 kts 334°
2026-04-29 01:05 33.07070 -82.55148 34104 ft 415 kts 334°
2026-04-29 01:05 33.12529 -82.57610 34107 ft 417 kts 334°
2026-04-29 01:06 33.17936 -82.60044 34103 ft 415 kts 334°
2026-04-29 01:06 33.23384 -82.62503 34103 ft 415 kts 334°
2026-04-29 01:07 33.28765 -82.64931 34101 ft 415 kts 334°
2026-04-29 01:07 33.34167 -82.67374 34104 ft 411 kts 333°
2026-04-29 01:08 33.39525 -82.69799 34106 ft 413 kts 333°
2026-04-29 01:08 33.44900 -82.72240 34105 ft 412 kts 333°
2026-04-29 01:09 33.50261 -82.74680 34103 ft 412 kts 333°
2026-04-29 01:09 33.55653 -82.77132 34105 ft 409 kts 333°
2026-04-29 01:10 33.60968 -82.79552 34106 ft 411 kts 333°
2026-04-29 01:10 33.66350 -82.82008 34105 ft 410 kts 333°
2026-04-29 01:11 33.71687 -82.84444 34106 ft 406 kts 332°
2026-04-29 01:11 33.76886 -82.86822 34110 ft 409 kts 332°
2026-04-29 01:12 33.82225 -82.89270 34109 ft 407 kts 332°
2026-04-29 01:12 33.87563 -82.91718 34106 ft 408 kts 332°
2026-04-29 01:13 33.92798 -82.94119 34107 ft 405 kts 332°
2026-04-29 01:13 33.98090 -82.96552 34103 ft 406 kts 331°
2026-04-29 01:14 34.03361 -82.98980 34102 ft 406 kts 332°
2026-04-29 01:14 34.08665 -83.01425 34105 ft 409 kts 332°
2026-04-29 01:15 34.14000 -83.03886 34098 ft 406 kts 331°
2026-04-29 01:15 34.19278 -83.06326 34100 ft 410 kts 332°
2026-04-29 01:16 34.24565 -83.08771 34099 ft 405 kts 332°
2026-04-29 01:16 34.29908 -83.11255 34101 ft 410 kts 332°
2026-04-29 01:17 34.35242 -83.13731 34099 ft 412 kts 332°
2026-04-29 01:17 34.40595 -83.16210 34098 ft 411 kts 331°
2026-04-29 01:18 34.45938 -83.18697 34091 ft 412 kts 332°
2026-04-29 01:18 34.51122 -83.21104 33353 ft 401 kts 332°
2026-04-29 01:18 34.53732 -83.22317 32771 ft 399 kts 332°
2026-04-29 01:19 34.56308 -83.23520 32097 ft 399 kts 332°
2026-04-29 01:19 34.58921 -83.24743 31373 ft 400 kts 332°
2026-04-29 01:19 34.61511 -83.25957 30769 ft 398 kts 332°
2026-04-29 01:19 34.64043 -83.27140 30348 ft 392 kts 332°
2026-04-29 01:20 34.66600 -83.28337 29864 ft 392 kts 332°
2026-04-29 01:20 34.69158 -83.29548 29389 ft 407 kts 332°
2026-04-29 01:20 34.71833 -83.30743 29093 ft 406 kts 335°
2026-04-29 01:20 34.74530 -83.31799 28516 ft 405 kts 336°
2026-04-29 01:21 34.77225 -83.32778 27890 ft 404 kts 337°
2026-04-29 01:21 34.79930 -83.33733 27251 ft 403 kts 337°
2026-04-29 01:21 34.82595 -83.34676 26743 ft 398 kts 337°
2026-04-29 01:21 34.85250 -83.35621 26136 ft 397 kts 337°
2026-04-29 01:22 34.87889 -83.36575 25540 ft 395 kts 337°
2026-04-29 01:22 34.90486 -83.37524 24913 ft 394 kts 337°
2026-04-29 01:22 34.93125 -83.38495 24341 ft 391 kts 337°
2026-04-29 01:22 34.95685 -83.39442 23738 ft 390 kts 337°
2026-04-29 01:23 34.98288 -83.40409 23132 ft 389 kts 337°
2026-04-29 01:23 35.00876 -83.41373 22625 ft 385 kts 337°
2026-04-29 01:23 35.03426 -83.42321 22138 ft 381 kts 337°
2026-04-29 01:23 35.05919 -83.43250 21655 ft 377 kts 338°
2026-04-29 01:24 35.08443 -83.44192 21156 ft 374 kts 338°
2026-04-29 01:24 35.10905 -83.45111 20671 ft 370 kts 338°
2026-04-29 01:24 35.13340 -83.46021 20183 ft 367 kts 338°
2026-04-29 01:24 35.15821 -83.46949 19680 ft 364 kts 338°
2026-04-29 01:25 35.18241 -83.47854 19193 ft 361 kts 338°
2026-04-29 01:25 35.20617 -83.48743 18760 ft 357 kts 338°
2026-04-29 01:25 35.23000 -83.49638 18523 ft 361 kts 338°
2026-04-29 01:25 35.25402 -83.50545 18235 ft 362 kts 339°
2026-04-29 01:26 35.27744 -83.51427 17800 ft 358 kts 339°
2026-04-29 01:26 35.30116 -83.52319 17257 ft 357 kts 339°
2026-04-29 01:26 35.32486 -83.53209 16757 ft 354 kts 340°
2026-04-29 01:26 35.34827 -83.54089 16267 ft 351 kts 340°
2026-04-29 01:27 35.37154 -83.54963 15763 ft 347 kts 340°
2026-04-29 01:27 35.39429 -83.55818 15291 ft 334 kts 341°
2026-04-29 01:27 35.41617 -83.56641 14848 ft 322 kts 341°
2026-04-29 01:27 35.43727 -83.57437 14397 ft 311 kts 341°
2026-04-29 01:28 35.45764 -83.58206 13968 ft 302 kts 341°
2026-04-29 01:28 35.47738 -83.58952 13563 ft 290 kts 341°
2026-04-29 01:28 35.49621 -83.59663 13155 ft 277 kts 342°
2026-04-29 01:28 35.51430 -83.60347 12778 ft 267 kts 341°
2026-04-29 01:29 35.53198 -83.61017 12390 ft 262 kts 341°
2026-04-29 01:29 35.54926 -83.61671 12025 ft 257 kts 341°
2026-04-29 01:29 35.56618 -83.62312 11662 ft 253 kts 341°
2026-04-29 01:29 35.58304 -83.62949 11306 ft 249 kts 341°
2026-04-29 01:30 35.59941 -83.63568 11036 ft 241 kts 341°
2026-04-29 01:30 35.61495 -83.64156 10915 ft 228 kts 341°
2026-04-29 01:30 35.62983 -83.64719 10749 ft 218 kts 341°
2026-04-29 01:30 35.64405 -83.65260 10523 ft 211 kts 340°
2026-04-29 01:31 35.65813 -83.65795 10259 ft 208 kts 340°
2026-04-29 01:31 35.67209 -83.66328 10158 ft 211 kts 340°
2026-04-29 01:31 35.68633 -83.66872 9955 ft 214 kts 339°
2026-04-29 01:31 35.70063 -83.67415 9628 ft 213 kts 339°
2026-04-29 01:32 35.71472 -83.67950 9373 ft 210 kts 339°
2026-04-29 01:32 35.72854 -83.68475 9107 ft 209 kts 339°
2026-04-29 01:32 35.74251 -83.69002 8851 ft 207 kts 339°
2026-04-29 01:32 35.75626 -83.69522 8592 ft 208 kts 340°
2026-04-29 01:33 35.77018 -83.70052 8319 ft 205 kts 339°
2026-04-29 01:33 35.78374 -83.70576 8080 ft 203 kts 339°
2026-04-29 01:33 35.79729 -83.71101 7833 ft 203 kts 340°
2026-04-29 01:33 35.81068 -83.71612 7582 ft 202 kts 340°
2026-04-29 01:34 35.82426 -83.72128 7333 ft 200 kts 339°
2026-04-29 01:34 35.83740 -83.72629 7084 ft 199 kts 339°
2026-04-29 01:34 35.85074 -83.73137 6833 ft 198 kts 339°
2026-04-29 01:34 35.86386 -83.73637 6594 ft 196 kts 339°
2026-04-29 01:35 35.87677 -83.74132 6382 ft 194 kts 339°
2026-04-29 01:35 35.88971 -83.74625 6176 ft 191 kts 339°
2026-04-29 01:35 35.90212 -83.75092 6062 ft 176 kts 339°
2026-04-29 01:35 35.91370 -83.75533 5883 ft 171 kts 339°
2026-04-29 01:36 35.92509 -83.75973 5731 ft 170 kts 339°
2026-04-29 01:36 35.93640 -83.76407 5634 ft 171 kts 339°
2026-04-29 01:36 35.94780 -83.76845 5584 ft 171 kts 338°
2026-04-29 01:36 35.95858 -83.77464 5524 ft 168 kts 316°
2026-04-29 01:37 35.96423 -83.78667 5447 ft 165 kts 278°
2026-04-29 01:37 35.96252 -83.80051 5169 ft 168 kts 245°
2026-04-29 01:37 35.95464 -83.81119 4791 ft 170 kts 213°
2026-04-29 01:37 35.94339 -83.81500 4532 ft 170 kts 184°
2026-04-29 01:38 35.93169 -83.81538 4349 ft 168 kts 200°
2026-04-29 01:38 35.92292 -83.82367 4119 ft 159 kts 243°
2026-04-29 01:38 35.91964 -83.83668 3888 ft 159 kts 257°
2026-04-29 01:38 35.91716 -83.85006 3640 ft 159 kts 256°
2026-04-29 01:39 35.91370 -83.86289 3384 ft 155 kts 239°
2026-04-29 01:39 35.90694 -83.87296 3170 ft 153 kts 227°
2026-04-29 01:39 35.89951 -83.88265 2940 ft 155 kts 227°
2026-04-29 01:39 35.89221 -83.89191 2746 ft 144 kts 225°
2026-04-29 01:40 35.88511 -83.90048 2772 ft 142 kts 225°
2026-04-29 01:40 35.87799 -83.90920 2656 ft 146 kts 226°
2026-04-29 01:40 35.87089 -83.91790 2412 ft 141 kts 226°
2026-04-29 01:40 35.86392 -83.92631 2265 ft 140 kts 226°
2026-04-29 01:41 35.85687 -83.93494 2068 ft 145 kts 225°
2026-04-29 01:41 35.84961 -83.94376 1868 ft 145 kts 225°
2026-04-29 01:41 35.84251 -83.95245 1678 ft 140 kts 225°
2026-04-29 01:41 35.83554 -83.96082 1457 ft 139 kts 225°
2026-04-29 01:42 35.82864 -83.96926 1337 ft 140 kts 226°
2026-04-29 01:42 35.82166 -83.97778 1133 ft 142 kts 224°
2026-04-29 01:42 35.81469 -83.98614 974 ft 135 kts 226°
2026-04-29 01:42 35.80889 -83.99322 961 ft 87 kts 224°
2026-04-29 01:43 35.80577 -83.99704 949 ft 48 kts 225°
2026-04-29 01:43 35.80342 -83.99993 916 ft 48 kts 225°
2026-04-29 01:43 35.80122 -84.00259 904 ft 32 kts 223°
2026-04-29 01:43 35.80072 -84.00305 903 ft 3 kts 189°
2026-04-29 01:44 35.80026 -84.00275 902 ft 9 kts 133°
2026-04-29 01:44 35.80022 -84.00191 902 ft 13 kts 53°
2026-04-29 01:44 35.80082 -84.00111 904 ft 11 kts 43°
2026-04-29 01:44 35.80134 -84.00051 906 ft 9 kts 43°
2026-04-29 01:45 35.80191 -83.99983 910 ft 12 kts 44°
2026-04-29 01:45 35.80258 -83.99904 921 ft 14 kts 44°
2026-04-29 01:45 35.80322 -83.99827 930 ft 15 kts 44°
2026-04-29 01:45 35.80431 -83.99698 941 ft 24 kts 43°
2026-04-29 01:46 35.80547 -83.99575 948 ft 20 kts 45°
2026-04-29 01:46 35.80630 -83.99470 954 ft 11 kts 64°